| time (UTC) | temp C | wind direction | speed KPH | gust KPH | rain 1hr cm | rain 24hr cm | rain mn cm | humidity % | barometer mb |
| 20260902021637 | 30 | 89 | 0.0 | 3.2 | 0.00 | 0.00 | 0.00 | 69 | 1016.9 |
| 20260902021137 | 30 | 90 | 0.0 | 1.6 | 0.00 | 0.00 | 0.00 | 70 | 1017.0 |
| 20260902020637 | 30 | 89 | 0.0 | 3.2 | 0.00 | 0.00 | 0.00 | 70 | 1017.0 |
| 20260902020137 | 30 | 78 | 0.0 | 3.2 | 0.00 | 0.00 | 0.00 | 69 | 1016.8 |
| 20260902015637 | 29 | 78 | 0.0 | 4.8 | 0.00 | 0.00 | 0.00 | 70 | 1016.6 |
| 20260902015137 | 29 | 198 | 0.0 | 0.0 | 0.00 | 0.00 | 0.00 | 69 | 1016.5 |
| 20260902014637 | 30 | 203 | 0.0 | 0.0 | 0.00 | 0.00 | 0.00 | 69 | 1016.5 |
| 20260902014137 | 30 | 203 | 0.0 | 0.0 | 0.00 | 0.00 | 0.00 | 69 | 1016.5 |
| 20260902013637 | 30 | 203 | 0.0 | 0.0 | 0.00 | 0.00 | 0.00 | 70 | 1016.2 |
| 20260902013137 | 30 | 203 | 0.0 | 0.0 | 0.00 | 0.00 | 0.00 | 69 | 1016.2 |
| 20260902012637 | 30 | 203 | 0.0 | 0.0 | 0.00 | 0.00 | 0.00 | 69 | 1016.2 |
| 20260902012137 | 30 | 204 | 0.0 | 0.0 | 0.00 | 0.00 | 0.00 | 69 | 1016.2 |
| 20260902011637 | 30 | 204 | 0.0 | 0.0 | 0.00 | 0.00 | 0.00 | 70 | 1016.0 |
| 20260902011137 | 30 | 204 | 0.0 | 0.0 | 0.00 | 0.00 | 0.00 | 70 | 1016.0 |
| 20260902010637 | 30 | 204 | 0.0 | 0.0 | 0.00 | 0.00 | 0.00 | 68 | 1016.0 |
| 20260902010137 | 31 | 204 | 0.0 | 0.0 | 0.00 | 0.00 | 0.00 | 67 | 1016.1 |
| 20260902005637 | 31 | 204 | 0.0 | 0.0 | 0.00 | 0.00 | 0.00 | 66 | 1016.1 |
| 20260902005137 | 31 | 204 | 0.0 | 0.0 | 0.00 | 0.00 | 0.00 | 65 | 1016.1 |
| 20260902004637 | 31 | 204 | 0.0 | 0.0 | 0.00 | 0.00 | 0.00 | 64 | 1016.1 |
| 20260902004137 | 31 | 204 | 0.0 | 0.0 | 0.00 | 0.00 | 0.00 | 63 | 1016.1 |
| 20260902003637 | 32 | 204 | 0.0 | 0.0 | 0.00 | 0.00 | 0.00 | 62 | 1016.2 |
| 20260902003137 | 32 | 204 | 0.0 | 0.0 | 0.00 | 0.00 | 0.00 | 62 | 1016.1 |
| 20260902002637 | 32 | 204 | 0.0 | 0.0 | 0.00 | 0.00 | 0.00 | 60 | 1016.0 |
| 20260902002137 | 32 | 204 | 0.0 | 0.0 | 0.00 | 0.00 | 0.00 | 60 | 1015.9 |
| 20260902001637 | 32 | 204 | 0.0 | 1.6 | 0.00 | 0.00 | 0.00 | 59 | 1015.9 |
| 20260902001137 | 33 | 204 | 0.0 | 1.6 | 0.00 | 0.00 | 0.00 | 59 | 1015.9 |
| 20260902000637 | 33 | 204 | 1.6 | 3.2 | 0.00 | 0.00 | 0.00 | 58 | 1015.9 |
| 20260902000137 | 33 | 204 | 1.6 | 4.8 | 0.00 | 0.00 | 0.00 | 58 | 1015.9 |
| 20260901235637 | 33 | 214 | 3.2 | 4.8 | 0.00 | 0.00 | 0.00 | 58 | 1015.9 |
| 20260901235137 | 33 | 192 | 3.2 | 6.4 | 0.00 | 0.00 | 0.00 | 57 | 1016.0 |
| 20260901234637 | 33 | 193 | 3.2 | 6.4 | 0.00 | 0.00 | 0.00 | 56 | 1016.0 |
| 20260901234137 | 34 | 203 | 3.2 | 8.0 | 0.00 | 0.00 | 0.00 | 55 | 1016.1 |
| 20260901233637 | 34 | 213 | 3.2 | 9.7 | 0.00 | 0.00 | 0.00 | 55 | 1016.1 |
| 20260901233137 | 34 | 185 | 3.2 | 8.0 | 0.00 | 0.00 | 0.00 | 54 | 1016.1 |
| 20260901232638 | 34 | 238 | 3.2 | 6.4 | 0.00 | 0.00 | 0.00 | 55 | 1016.2 |
| 20260901232138 | 35 | 208 | 3.2 | 8.0 | 0.00 | 0.00 | 0.00 | 54 | 1016.2 |
| 20260901231638 | 35 | 186 | 3.2 | 8.0 | 0.00 | 0.00 | 0.00 | 53 | 1016.3 |
| 20260901231138 | 35 | 160 | 3.2 | 9.7 | 0.00 | 0.00 | 0.00 | 53 | 1016.3 |
| 20260901230638 | 35 | 160 | 3.2 | 6.4 | 0.00 | 0.00 | 0.00 | 53 | 1016.3 |
| 20260901230138 | 35 | 99 | 3.2 | 8.0 | 0.00 | 0.00 | 0.00 | 53 | 1016.2 |
| 20260901225638 | 35 | 152 | 3.2 | 6.4 | 0.00 | 0.00 | 0.00 | 53 | 1016.2 |
| 20260901225138 | 35 | 117 | 3.2 | 6.4 | 0.00 | 0.00 | 0.00 | 52 | 1016.2 |
| 20260901224638 | 36 | 178 | 3.2 | 3.2 | 0.00 | 0.00 | 0.00 | 52 | 1016.3 |
| 20260901224138 | 36 | 165 | 3.2 | 6.4 | 0.00 | 0.00 | 0.00 | 52 | 1016.3 |
| 20260901223638 | 36 | 170 | 3.2 | 8.0 | 0.00 | 0.00 | 0.00 | 52 | 1016.3 |
| 20260901223138 | 36 | 82 | 3.2 | 6.4 | 0.00 | 0.00 | 0.00 | 52 | 1016.3 |
| 20260901222638 | 36 | 172 | 3.2 | 9.7 | 0.00 | 0.00 | 0.00 | 51 | 1016.1 |
| 20260901222138 | 36 | 137 | 4.8 | 11.3 | 0.00 | 0.00 | 0.00 | 51 | 1016.2 |
| 20260901221638 | 36 | 138 | 3.2 | 6.4 | 0.00 | 0.00 | 0.00 | 50 | 1016.2 |
| 20260901221138 | 36 | 194 | 3.2 | 8.0 | 0.00 | 0.00 | 0.00 | 50 | 1016.1 |
| 20260901220638 | 36 | 129 | 4.8 | 8.0 | 0.00 | 0.00 | 0.00 | 50 | 1016.2 |
| 20260901220138 | 36 | 252 | 4.8 | 8.0 | 0.00 | 0.00 | 0.00 | 50 | 1016.2 |
| 20260901215638 | 36 | 207 | 3.2 | 12.9 | 0.00 | 0.00 | 0.00 | 49 | 1016.3 |
| 20260901215138 | 36 | 85 | 3.2 | 6.4 | 0.00 | 0.00 | 0.00 | 49 | 1016.3 |
| 20260901214638 | 36 | 162 | 4.8 | 12.9 | 0.00 | 0.00 | 0.00 | 51 | 1016.4 |
| 20260901214138 | 36 | 135 | 4.8 | 16.1 | 0.00 | 0.00 | 0.00 | 50 | 1016.4 |
| 20260901213638 | 37 | 154 | 3.2 | 16.1 | 0.00 | 0.00 | 0.00 | 50 | 1016.5 |
| 20260901213138 | 37 | 157 | 3.2 | 9.7 | 0.00 | 0.00 | 0.00 | 51 | 1016.4 |
| 20260901212638 | 37 | 72 | 3.2 | 9.7 | 0.00 | 0.00 | 0.00 | 51 | 1016.4 |
| 20260901212138 | 36 | 164 | 4.8 | 11.3 | 0.00 | 0.00 | 0.00 | 51 | 1016.4 |
| 20260901211638 | 36 | 113 | 6.4 | 9.7 | 0.00 | 0.00 | 0.00 | 52 | 1016.4 |
| 20260901211138 | 36 | 167 | 4.8 | 14.5 | 0.00 | 0.00 | 0.00 | 52 | 1016.5 |
| 20260901210638 | 36 | 155 | 4.8 | 8.0 | 0.00 | 0.00 | 0.00 | 51 | 1016.5 |
| 20260901210138 | 36 | 23 | 4.8 | 12.9 | 0.00 | 0.00 | 0.00 | 51 | 1016.6 |
| 20260901205638 | 36 | 153 | 4.8 | 16.1 | 0.00 | 0.00 | 0.00 | 52 | 1016.6 |
| 20260901205138 | 36 | 12 | 4.8 | 12.9 | 0.00 | 0.00 | 0.00 | 52 | 1016.6 |
| 20260901204638 | 36 | 194 | 4.8 | 12.9 | 0.00 | 0.00 | 0.00 | 50 | 1016.7 |
| 20260901204138 | 37 | 136 | 4.8 | 12.9 | 0.00 | 0.00 | 0.00 | 49 | 1016.8 |
| 20260901203638 | 37 | 119 | 3.2 | 8.0 | 0.00 | 0.00 | 0.00 | 49 | 1016.7 |
| 20260901203138 | 37 | 151 | 4.8 | 9.7 | 0.00 | 0.00 | 0.00 | 49 | 1016.7 |
| 20260901202638 | 36 | 359 | 4.8 | 14.5 | 0.00 | 0.00 | 0.00 | 50 | 1016.8 |
| 20260901202138 | 36 | 179 | 4.8 | 12.9 | 0.00 | 0.00 | 0.00 | 50 | 1016.9 |
| 20260901201638 | 36 | 183 | 4.8 | 12.9 | 0.00 | 0.00 | 0.00 | 51 | 1017.0 |
| 20260901201138 | 36 | 61 | 4.8 | 9.7 | 0.00 | 0.00 | 0.00 | 52 | 1017.1 |
| 20260901200638 | 36 | 77 | 3.2 | 12.9 | 0.00 | 0.00 | 0.00 | 52 | 1017.0 |
| 20260901200138 | 35 | 125 | 4.8 | 9.7 | 0.00 | 0.00 | 0.00 | 54 | 1017.2 |
| 20260901195638 | 35 | 144 | 4.8 | 12.9 | 0.00 | 0.00 | 0.00 | 53 | 1017.2 |
| 20260901195138 | 36 | 37 | 3.2 | 9.7 | 0.00 | 0.00 | 0.00 | 52 | 1017.1 |
| 20260901194638 | 36 | 334 | 3.2 | 11.3 | 0.00 | 0.00 | 0.00 | 51 | 1017.2 |
| 20260901194138 | 35 | 180 | 3.2 | 6.4 | 0.00 | 0.00 | 0.00 | 50 | 1017.3 |
| 20260901193638 | 36 | 157 | 3.2 | 9.7 | 0.00 | 0.00 | 0.00 | 48 | 1017.5 |
| 20260901193138 | 36 | 104 | 3.2 | 9.7 | 0.00 | 0.00 | 0.00 | 49 | 1017.3 |
| 20260901192638 | 37 | 230 | 1.6 | 8.0 | 0.00 | 0.00 | 0.00 | 48 | 1017.3 |
| 20260901192138 | 37 | 229 | 3.2 | 6.4 | 0.00 | 0.00 | 0.00 | 46 | 1017.5 |
| 20260901191638 | 37 | 238 | 4.8 | 6.4 | 0.00 | 0.00 | 0.00 | 48 | 1017.6 |
| 20260901191138 | 36 | 199 | 4.8 | 9.7 | 0.00 | 0.00 | 0.00 | 48 | 1017.6 |
| 20260901190638 | 36 | 125 | 3.2 | 9.7 | 0.00 | 0.00 | 0.00 | 50 | 1017.6 |
| 20260901190138 | 35 | 214 | 1.6 | 8.0 | 0.00 | 0.00 | 0.00 | 54 | 1017.7 |
| 20260901185638 | 35 | 119 | 1.6 | 4.8 | 0.00 | 0.00 | 0.00 | 54 | 1017.8 |
| 20260901185138 | 35 | 232 | 3.2 | 6.4 | 0.00 | 0.00 | 0.00 | 54 | 1017.8 |
| 20260901184638 | 35 | 174 | 3.2 | 6.4 | 0.00 | 0.00 | 0.00 | 53 | 1017.9 |
| 20260901184138 | 35 | 160 | 4.8 | 9.7 | 0.00 | 0.00 | 0.00 | 51 | 1017.9 |
| 20260901183638 | 35 | 237 | 4.8 | 12.9 | 0.00 | 0.00 | 0.00 | 52 | 1017.9 |
| 20260901183138 | 35 | 182 | 4.8 | 8.0 | 0.00 | 0.00 | 0.00 | 53 | 1018.0 |
| 20260901182638 | 35 | 231 | 4.8 | 9.7 | 0.00 | 0.00 | 0.00 | 54 | 1018.0 |
| 20260901182138 | 35 | 238 | 4.8 | 8.0 | 0.00 | 0.00 | 0.00 | 54 | 1018.1 |
| 20260901181638 | 35 | 206 | 4.8 | 8.0 | 0.00 | 0.00 | 0.00 | 52 | 1018.2 |
| 20260901181138 | 36 | 266 | 3.2 | 8.0 | 0.00 | 0.00 | 0.00 | 51 | 1018.2 |
| 20260901180638 | 36 | 33 | 3.2 | 8.0 | 0.00 | 0.00 | 0.00 | 53 | 1018.3 |
| 20260901180138 | 37 | 185 | 3.2 | 6.4 | 0.00 | 0.00 | 0.00 | 51 | 1018.5 |
| 20260901175638 | 37 | 23 | 3.2 | 6.4 | 0.00 | 0.00 | 0.00 | 52 | 1018.5 |
| 20260901175138 | 37 | 0 | 1.6 | 6.4 | 0.00 | 0.00 | 0.00 | 53 | 1018.5 |
| 20260901174638 | 36 | 27 | 1.6 | 4.8 | 0.00 | 0.00 | 0.00 | 55 | 1018.6 |
| 20260901174138 | 36 | 134 | 3.2 | 8.0 | 0.00 | 0.00 | 0.00 | 54 | 1018.7 |
| 20260901173638 | 36 | 198 | 3.2 | 9.7 | 0.00 | 0.00 | 0.00 | 55 | 1018.7 |
| 20260901173138 | 36 | 175 | 3.2 | 6.4 | 0.00 | 0.00 | 0.00 | 56 | 1018.9 |
| 20260901172638 | 36 | 175 | 4.8 | 8.0 | 0.00 | 0.00 | 0.00 | 55 | 1018.9 |
| 20260901172138 | 36 | 135 | 4.8 | 11.3 | 0.00 | 0.00 | 0.00 | 56 | 1018.9 |
| 20260901171638 | 35 | 230 | 4.8 | 11.3 | 0.00 | 0.00 | 0.00 | 56 | 1019.0 |
| 20260901171138 | 35 | 258 | 6.4 | 12.9 | 0.00 | 0.00 | 0.00 | 57 | 1019.0 |
| 20260901170638 | 35 | 191 | 6.4 | 14.5 | 0.00 | 0.00 | 0.00 | 57 | 1019.0 |
| 20260901170138 | 35 | 236 | 6.4 | 9.7 | 0.00 | 0.00 | 0.00 | 57 | 1019.2 |
| 20260901165638 | 36 | 238 | 4.8 | 11.3 | 0.00 | 0.00 | 0.00 | 56 | 1019.2 |
| 20260901165138 | 36 | 24 | 4.8 | 9.7 | 0.00 | 0.00 | 0.00 | 57 | 1019.2 |
| 20260901164638 | 35 | 252 | 4.8 | 8.0 | 0.00 | 0.00 | 0.00 | 58 | 1019.0 |
| 20260901164138 | 35 | 162 | 1.6 | 12.9 | 0.00 | 0.00 | 0.00 | 59 | 1019.0 |
| 20260901163638 | 34 | 209 | 3.2 | 4.8 | 0.00 | 0.00 | 0.00 | 62 | 1019.0 |
| 20260901163138 | 34 | 212 | 3.2 | 9.7 | 0.00 | 0.00 | 0.00 | 61 | 1019.2 |
| 20260901162638 | 33 | 200 | 4.8 | 6.4 | 0.00 | 0.00 | 0.00 | 63 | 1019.2 |
| 20260901162138 | 33 | 240 | 4.8 | 8.0 | 0.00 | 0.00 | 0.00 | 61 | 1019.2 |
| 20260901161638 | 33 | 259 | 3.2 | 6.4 | 0.00 | 0.00 | 0.00 | 60 | 1019.3 |
| 20260901161138 | 33 | 131 | 3.2 | 4.8 | 0.00 | 0.00 | 0.00 | 60 | 1019.3 |
| 20260901160638 | 34 | 205 | 4.8 | 9.7 | 0.00 | 0.00 | 0.00 | 61 | 1019.3 |
| 20260901160138 | 33 | 231 | 4.8 | 11.3 | 0.00 | 0.00 | 0.00 | 62 | 1019.3 |
| 20260901155638 | 33 | 236 | 6.4 | 9.7 | 0.00 | 0.00 | 0.00 | 61 | 1019.4 |
| 20260901155138 | 34 | 175 | 4.8 | 11.3 | 0.00 | 0.00 | 0.00 | 63 | 1019.5 |
| 20260901154638 | 34 | 200 | 3.2 | 9.7 | 0.00 | 0.00 | 0.00 | 61 | 1019.5 |
| 20260901154138 | 35 | 198 | 1.6 | 6.4 | 0.00 | 0.00 | 0.00 | 61 | 1019.7 |
| 20260901153638 | 35 | 3 | 1.6 | 3.2 | 0.00 | 0.00 | 0.00 | 62 | 1019.8 |
| 20260901153138 | 34 | 307 | 1.6 | 4.8 | 0.00 | 0.00 | 0.00 | 64 | 1019.8 |
| 20260901152638 | 34 | 45 | 1.6 | 4.8 | 0.00 | 0.00 | 0.00 | 65 | 1019.9 |
| 20260901152138 | 33 | 222 | 1.6 | 1.6 | 0.00 | 0.00 | 0.00 | 67 | 1019.9 |
| 20260901151638 | 33 | 221 | 3.2 | 4.8 | 0.00 | 0.00 | 0.00 | 68 | 1019.7 |
| 20260901151138 | 33 | 231 | 3.2 | 8.0 | 0.00 | 0.00 | 0.00 | 68 | 1019.6 |
| 20260901150638 | 33 | 218 | 1.6 | 6.4 | 0.00 | 0.00 | 0.00 | 69 | 1019.7 |
| 20260901150138 | 33 | 130 | 0.0 | 4.8 | 0.00 | 0.00 | 0.00 | 69 | 1019.6 |
| 20260901145638 | 32 | 162 | 1.6 | 3.2 | 0.00 | 0.00 | 0.00 | 68 | 1019.6 |
| 20260901145138 | 32 | 229 | 1.6 | 4.8 | 0.00 | 0.00 | 0.00 | 69 | 1019.6 |
| 20260901144638 | 32 | 153 | 1.6 | 4.8 | 0.00 | 0.00 | 0.00 | 71 | 1019.6 |
| 20260901144138 | 32 | 1 | 1.6 | 3.2 | 0.00 | 0.00 | 0.00 | 71 | 1019.8 |
| 20260901143638 | 31 | 244 | 1.6 | 4.8 | 0.00 | 0.00 | 0.00 | 72 | 1019.6 |
| 20260901143138 | 31 | 257 | 1.6 | 1.6 | 0.00 | 0.00 | 0.00 | 75 | 1019.5 |
| 20260901142638 | 31 | 257 | 1.6 | 4.8 | 0.00 | 0.00 | 0.00 | 75 | 1019.5 |
| 20260901142138 | 30 | 250 | 1.6 | 4.8 | 0.00 | 0.00 | 0.00 | 76 | 1019.4 |
| 20260901141638 | 30 | 259 | 1.6 | 1.6 | 0.00 | 0.00 | 0.00 | 76 | 1019.5 |
| 20260901141138 | 30 | 257 | 1.6 | 6.4 | 0.00 | 0.00 | 0.00 | 77 | 1019.6 |
| 20260901140638 | 30 | 214 | 0.0 | 1.6 | 0.00 | 0.00 | 0.00 | 77 | 1019.6 |
| 20260901140138 | 30 | 214 | 0.0 | 1.6 | 0.00 | 0.00 | 0.00 | 79 | 1019.6 |
| 20260901135638 | 29 | 212 | 0.0 | 3.2 | 0.00 | 0.00 | 0.00 | 80 | 1019.7 |
| 20260901135138 | 28 | 211 | 1.6 | 1.6 | 0.00 | 0.00 | 0.00 | 81 | 1019.8 |
| 20260901134638 | 28 | 211 | 1.6 | 4.8 | 0.00 | 0.00 | 0.00 | 82 | 1019.6 |
| 20260901134138 | 27 | 212 | 1.6 | 3.2 | 0.00 | 0.00 | 0.00 | 82 | 1019.5 |
| 20260901133638 | 27 | 212 | 1.6 | 3.2 | 0.00 | 0.00 | 0.00 | 85 | 1019.6 |
| 20260901133138 | 26 | 217 | 1.6 | 3.2 | 0.00 | 0.00 | 0.00 | 87 | 1019.6 |
| 20260901132638 | 26 | 217 | 1.6 | 4.8 | 0.00 | 0.00 | 0.00 | 89 | 1019.5 |
| 20260901132138 | 25 | 217 | 1.6 | 4.8 | 0.00 | 0.00 | 0.00 | 90 | 1019.5 |
| 20260901131638 | 25 | 217 | 1.6 | 4.8 | 0.00 | 0.00 | 0.00 | 92 | 1019.4 |
| 20260901131138 | 25 | 217 | 1.6 | 4.8 | 0.00 | 0.00 | 0.00 | 92 | 1019.4 |
| 20260901130638 | 24 | 217 | 1.6 | 0.0 | 0.00 | 0.00 | 0.00 | 94 | 1019.3 |
| 20260901130138 | 23 | 216 | 1.6 | 6.4 | 0.00 | 0.00 | 0.00 | 94 | 1019.2 |
| 20260901125638 | 23 | 214 | 0.0 | 4.8 | 0.00 | 0.00 | 0.00 | 94 | 1019.2 |
| 20260901125138 | 23 | 163 | 0.0 | 0.0 | 0.00 | 0.00 | 0.00 | 94 | 1019.2 |
| 20260901124638 | 22 | 163 | 0.0 | 0.0 | 0.00 | 0.00 | 0.00 | 95 | 1019.2 |
| 20260901124138 | 22 | 163 | 0.0 | 0.0 | 0.00 | 0.00 | 0.00 | 94 | 1019.3 |
| 20260901123638 | 22 | 163 | 0.0 | 0.0 | 0.00 | 0.00 | 0.00 | 95 | 1019.3 |
| 20260901123138 | 22 | 163 | 0.0 | 0.0 | 0.00 | 0.00 | 0.00 | 95 | 1019.2 |
| 20260901122638 | 22 | 163 | 0.0 | 0.0 | 0.00 | 0.00 | 0.00 | 95 | 1019.2 |
| 20260901122138 | 22 | 163 | 0.0 | 0.0 | 0.00 | 0.00 | 0.00 | 95 | 1019.2 |
| 20260901121638 | 22 | 163 | 0.0 | 0.0 | 0.00 | 0.00 | 0.00 | 95 | 1019.1 |
| 20260901121138 | 22 | 163 | 0.0 | 0.0 | 0.00 | 0.00 | 0.00 | 95 | 1019.0 |
| 20260901120638 | 21 | 163 | 0.0 | 0.0 | 0.00 | 0.00 | 0.00 | 95 | 1019.1 |
| 20260901120138 | 21 | 165 | 0.0 | 0.0 | 0.00 | 0.00 | 0.00 | 95 | 1019.0 |
| 20260901115638 | 21 | 165 | 0.0 | 0.0 | 0.00 | 0.00 | 0.00 | 95 | 1018.9 |
| 20260901115138 | 21 | 165 | 0.0 | 0.0 | 0.00 | 0.00 | 0.00 | 95 | 1018.8 |
| 20260901114638 | 21 | 165 | 0.0 | 0.0 | 0.00 | 0.00 | 0.00 | 95 | 1018.9 |
| 20260901114138 | 21 | 165 | 0.0 | 0.0 | 0.00 | 0.00 | 0.00 | 95 | 1018.8 |
| 20260901113638 | 21 | 165 | 0.0 | 1.6 | 0.00 | 0.00 | 0.00 | 95 | 1018.8 |
| 20260901113138 | 21 | 163 | 0.0 | 0.0 | 0.00 | 0.00 | 0.00 | 95 | 1018.7 |
| 20260901112638 | 21 | 163 | 0.0 | 0.0 | 0.00 | 0.00 | 0.00 | 95 | 1018.7 |
| 20260901112138 | 21 | 163 | 0.0 | 0.0 | 0.00 | 0.00 | 0.00 | 95 | 1018.6 |
| 20260901111638 | 21 | 163 | 0.0 | 0.0 | 0.00 | 0.00 | 0.00 | 95 | 1018.7 |
| 20260901111138 | 21 | 109 | 0.0 | 0.0 | 0.00 | 0.00 | 0.00 | 95 | 1018.5 |
| 20260901110638 | 21 | 109 | 0.0 | 0.0 | 0.00 | 0.00 | 0.00 | 94 | 1018.6 |
| 20260901110138 | 21 | 109 | 0.0 | 1.6 | 0.00 | 0.00 | 0.00 | 94 | 1018.5 |
| 20260901105639 | 22 | 108 | 0.0 | 0.0 | 0.00 | 0.00 | 0.00 | 94 | 1018.4 |
| 20260901105138 | 22 | 108 | 0.0 | 1.6 | 0.00 | 0.00 | 0.00 | 94 | 1018.4 |
| 20260901104639 | 22 | 102 | 0.0 | 0.0 | 0.00 | 0.00 | 0.00 | 94 | 1018.4 |
| 20260901104138 | 22 | 101 | 0.0 | 0.0 | 0.00 | 0.00 | 0.00 | 93 | 1018.3 |
| 20260901103639 | 23 | 101 | 0.0 | 0.0 | 0.00 | 0.00 | 0.00 | 93 | 1018.2 |
| 20260901103139 | 23 | 101 | 0.0 | 0.0 | 0.00 | 0.00 | 0.00 | 93 | 1018.2 |
| 20260901102639 | 23 | 102 | 0.0 | 0.0 | 0.00 | 0.00 | 0.00 | 93 | 1018.0 |
| 20260901102139 | 23 | 102 | 0.0 | 0.0 | 0.00 | 0.00 | 0.00 | 93 | 1018.1 |
| 20260901101639 | 23 | 104 | 0.0 | 0.0 | 0.00 | 0.00 | 0.00 | 93 | 1018.0 |
| 20260901101139 | 23 | 103 | 0.0 | 0.0 | 0.00 | 0.00 | 0.00 | 93 | 1018.0 |
| 20260901100639 | 23 | 104 | 0.0 | 0.0 | 0.00 | 0.00 | 0.00 | 93 | 1017.9 |
| 20260901100139 | 23 | 104 | 0.0 | 0.0 | 0.00 | 0.00 | 0.00 | 92 | 1018.0 |
| 20260901095639 | 23 | 103 | 0.0 | 0.0 | 0.00 | 0.00 | 0.00 | 92 | 1017.9 |
| 20260901095139 | 23 | 104 | 0.0 | 0.0 | 0.00 | 0.00 | 0.00 | 92 | 1017.9 |
| 20260901094639 | 23 | 103 | 0.0 | 0.0 | 0.00 | 0.00 | 0.00 | 91 | 1017.8 |
| 20260901094139 | 23 | 104 | 0.0 | 0.0 | 0.00 | 0.00 | 0.00 | 91 | 1017.9 |
| 20260901093639 | 23 | 104 | 0.0 | 3.2 | 0.00 | 0.00 | 0.00 | 91 | 1017.8 |
| 20260901093139 | 23 | 103 | 0.0 | 4.8 | 0.00 | 0.00 | 0.00 | 92 | 1018.0 |
| 20260901092639 | 23 | 126 | 0.0 | 3.2 | 0.00 | 0.00 | 0.00 | 92 | 1017.8 |
| 20260901092139 | 23 | 136 | 0.0 | 1.6 | 0.00 | 0.00 | 0.00 | 92 | 1017.8 |
| 20260901091639 | 23 | 136 | 0.0 | 1.6 | 0.00 | 0.00 | 0.00 | 92 | 1017.9 |
| 20260901091139 | 23 | 136 | 0.0 | 1.6 | 0.00 | 0.00 | 0.00 | 91 | 1017.7 |
| 20260901090639 | 23 | 136 | 0.0 | 0.0 | 0.00 | 0.00 | 0.00 | 91 | 1017.6 |
| 20260901090139 | 23 | 136 | 0.0 | 0.0 | 0.00 | 0.00 | 0.00 | 91 | 1017.7 |
| 20260901085639 | 23 | 136 | 0.0 | 0.0 | 0.00 | 0.00 | 0.00 | 91 | 1017.6 |
| 20260901085139 | 24 | 136 | 0.0 | 0.0 | 0.00 | 0.00 | 0.00 | 90 | 1017.6 |
| 20260901084639 | 24 | 136 | 0.0 | 0.0 | 0.00 | 0.00 | 0.00 | 90 | 1017.6 |
| 20260901084139 | 24 | 136 | 0.0 | 0.0 | 0.00 | 0.00 | 0.00 | 90 | 1017.6 |
| 20260901083639 | 24 | 136 | 0.0 | 0.0 | 0.00 | 0.00 | 0.00 | 90 | 1017.7 |
| 20260901083139 | 24 | 136 | 0.0 | 1.6 | 0.00 | 0.00 | 0.00 | 90 | 1017.6 |
| 20260901082639 | 24 | 136 | 0.0 | 1.6 | 0.00 | 0.00 | 0.00 | 90 | 1017.6 |
| 20260901082139 | 24 | 136 | 0.0 | 1.6 | 0.00 | 0.00 | 0.00 | 91 | 1017.6 |
| 20260901081639 | 24 | 136 | 0.0 | 1.6 | 0.00 | 0.00 | 0.00 | 90 | 1017.6 |
| 20260901081139 | 24 | 136 | 0.0 | 0.0 | 0.00 | 0.00 | 0.00 | 90 | 1017.6 |
| 20260901080639 | 24 | 136 | 0.0 | 0.0 | 0.00 | 0.00 | 0.00 | 90 | 1017.6 |
| 20260901080139 | 24 | 136 | 0.0 | 1.6 | 0.00 | 0.00 | 0.00 | 90 | 1017.6 |
| 20260901075639 | 24 | 138 | 0.0 | 4.8 | 0.00 | 0.00 | 0.00 | 91 | 1017.7 |
| 20260901075139 | 23 | 120 | 0.0 | 3.2 | 0.00 | 0.00 | 0.00 | 91 | 1017.6 |
| 20260901074639 | 23 | 143 | 0.0 | 3.2 | 0.00 | 0.00 | 0.00 | 92 | 1017.6 |
| 20260901074139 | 23 | 141 | 0.0 | 4.8 | 0.00 | 0.00 | 0.00 | 92 | 1017.5 |
| 20260901073639 | 23 | 147 | 0.0 | 1.6 | 0.00 | 0.00 | 0.00 | 92 | 1017.6 |
| 20260901073139 | 23 | 147 | 0.0 | 3.2 | 0.00 | 0.00 | 0.00 | 92 | 1017.6 |
| 20260901072639 | 23 | 120 | 0.0 | 0.0 | 0.00 | 0.00 | 0.00 | 92 | 1017.7 |
| 20260901072139 | 23 | 119 | 0.0 | 0.0 | 0.00 | 0.00 | 0.00 | 92 | 1017.6 |
| 20260901071639 | 23 | 113 | 0.0 | 0.0 | 0.00 | 0.00 | 0.00 | 91 | 1017.6 |
| 20260901071139 | 24 | 113 | 0.0 | 0.0 | 0.00 | 0.00 | 0.00 | 90 | 1017.5 |
| 20260901070639 | 24 | 113 | 0.0 | 0.0 | 0.00 | 0.00 | 0.00 | 90 | 1017.4 |
| 20260901070139 | 24 | 113 | 0.0 | 1.6 | 0.00 | 0.00 | 0.00 | 90 | 1017.4 |
| 20260901065639 | 24 | 113 | 0.0 | 1.6 | 0.00 | 0.00 | 0.00 | 89 | 1017.5 |
| 20260901065139 | 24 | 113 | 0.0 | 0.0 | 0.00 | 0.00 | 0.00 | 89 | 1017.5 |
| 20260901064639 | 25 | 113 | 0.0 | 0.0 | 0.00 | 0.00 | 0.00 | 88 | 1017.6 |
| 20260901064139 | 25 | 113 | 0.0 | 1.6 | 0.00 | 0.00 | 0.00 | 87 | 1017.6 |
| 20260901063639 | 25 | 113 | 0.0 | 1.6 | 0.00 | 0.00 | 0.00 | 87 | 1017.6 |
| 20260901063139 | 25 | 113 | 1.6 | 3.2 | 0.00 | 0.00 | 0.00 | 87 | 1017.7 |
| 20260901062639 | 25 | 59 | 1.6 | 3.2 | 0.00 | 0.00 | 0.00 | 87 | 1017.7 |
| 20260901062139 | 25 | 85 | 1.6 | 4.8 | 0.00 | 0.00 | 0.00 | 87 | 1017.7 |
| 20260901061639 | 25 | 115 | 1.6 | 4.8 | 0.00 | 0.00 | 0.00 | 86 | 1017.7 |
| 20260901061139 | 25 | 93 | 1.6 | 3.2 | 0.00 | 0.00 | 0.00 | 86 | 1017.6 |
| 20260901060639 | 25 | 96 | 1.6 | 4.8 | 0.00 | 0.00 | 0.00 | 86 | 1017.6 |
| 20260901060139 | 25 | 85 | 1.6 | 4.8 | 0.00 | 0.00 | 0.00 | 87 | 1017.6 |
| 20260901055639 | 25 | 98 | 0.0 | 4.8 | 0.00 | 0.00 | 0.00 | 87 | 1017.4 |
| 20260901055139 | 25 | 74 | 0.0 | 3.2 | 0.00 | 0.00 | 0.00 | 87 | 1017.4 |
| 20260901054639 | 25 | 72 | 0.0 | 0.0 | 0.00 | 0.00 | 0.00 | 87 | 1017.6 |
| 20260901054139 | 25 | 143 | 0.0 | 0.0 | 0.00 | 0.00 | 0.00 | 87 | 1017.6 |
| 20260901053639 | 25 | 143 | 0.0 | 3.2 | 0.00 | 0.00 | 0.00 | 87 | 1017.6 |
| 20260901053139 | 25 | 143 | 0.0 | 0.0 | 0.00 | 0.00 | 0.00 | 87 | 1017.6 |
| 20260901052639 | 25 | 143 | 0.0 | 1.6 | 0.00 | 0.00 | 0.00 | 86 | 1017.6 |
| 20260901052139 | 25 | 143 | 0.0 | 0.0 | 0.00 | 0.00 | 0.00 | 86 | 1017.7 |
| 20260901051639 | 25 | 143 | 0.0 | 3.2 | 0.00 | 0.00 | 0.00 | 85 | 1017.6 |
| 20260901051139 | 25 | 145 | 0.0 | 3.2 | 0.00 | 0.00 | 0.00 | 86 | 1017.7 |
| 20260901050639 | 25 | 148 | 0.0 | 1.6 | 0.00 | 0.00 | 0.00 | 85 | 1017.5 |
| 20260901050139 | 25 | 148 | 0.0 | 0.0 | 0.00 | 0.00 | 0.00 | 85 | 1017.6 |
| 20260901045639 | 25 | 148 | 0.0 | 0.0 | 0.00 | 0.00 | 0.00 | 85 | 1017.5 |
| 20260901045139 | 25 | 148 | 0.0 | 0.0 | 0.00 | 0.00 | 0.00 | 85 | 1017.4 |
| 20260901044639 | 26 | 148 | 0.0 | 0.0 | 0.00 | 0.00 | 0.00 | 84 | 1017.5 |
| 20260901044139 | 26 | 148 | 0.0 | 0.0 | 0.00 | 0.00 | 0.00 | 84 | 1017.5 |
| 20260901043639 | 26 | 148 | 0.0 | 0.0 | 0.00 | 0.00 | 0.00 | 83 | 1017.4 |
| 20260901043139 | 26 | 148 | 0.0 | 1.6 | 0.00 | 0.00 | 0.00 | 83 | 1017.4 |
| 20260901042639 | 26 | 148 | 0.0 | 1.6 | 0.00 | 0.00 | 0.00 | 82 | 1017.5 |
| 20260901042139 | 26 | 148 | 0.0 | 3.2 | 0.00 | 0.00 | 0.00 | 82 | 1017.5 |
| 20260901041639 | 26 | 161 | 0.0 | 3.2 | 0.00 | 0.00 | 0.00 | 82 | 1017.4 |
| 20260901041139 | 27 | 161 | 0.0 | 1.6 | 0.00 | 0.00 | 0.00 | 80 | 1017.6 |
| 20260901040639 | 27 | 161 | 0.0 | 1.6 | 0.00 | 0.00 | 0.00 | 80 | 1017.5 |
| 20260901040139 | 27 | 141 | 1.6 | 3.2 | 0.00 | 0.00 | 0.00 | 79 | 1017.4 |
| 20260901035639 | 27 | 167 | 1.6 | 4.8 | 0.00 | 0.00 | 0.00 | 79 | 1017.5 |
| 20260901035139 | 27 | 155 | 1.6 | 4.8 | 0.00 | 0.00 | 0.00 | 78 | 1017.5 |
| 20260901034639 | 27 | 153 | 1.6 | 3.2 | 0.00 | 0.00 | 0.00 | 78 | 1017.6 |
| 20260901034139 | 27 | 151 | 1.6 | 6.4 | 0.00 | 0.00 | 0.00 | 77 | 1017.6 |
| 20260901033639 | 27 | 150 | 1.6 | 4.8 | 0.00 | 0.00 | 0.00 | 77 | 1017.6 |
| 20260901033139 | 27 | 102 | 1.6 | 4.8 | 0.00 | 0.00 | 0.00 | 77 | 1017.6 |
| 20260901032639 | 27 | 146 | 1.6 | 4.8 | 0.00 | 0.00 | 0.00 | 77 | 1017.5 |
| 20260901032139 | 27 | 107 | 1.6 | 4.8 | 0.00 | 0.00 | 0.00 | 77 | 1017.6 |
| 20260901031639 | 27 | 106 | 1.6 | 4.8 | 0.00 | 0.00 | 0.00 | 78 | 1017.7 |
| 20260901031139 | 27 | 105 | 0.0 | 6.4 | 0.00 | 0.00 | 0.00 | 78 | 1017.6 |
| 20260901030639 | 27 | 149 | 0.0 | 4.8 | 0.00 | 0.00 | 0.00 | 78 | 1017.6 |
| 20260901030139 | 28 | 168 | 1.6 | 3.2 | 0.00 | 0.00 | 0.00 | 77 | 1017.7 |
| 20260901025639 | 28 | 168 | 0.0 | 3.2 | 0.00 | 0.00 | 0.00 | 77 | 1017.7 |
| 20260901025139 | 28 | 168 | 0.0 | 3.2 | 0.00 | 0.00 | 0.00 | 77 | 1017.6 |
| 20260901024639 | 28 | 168 | 0.0 | 1.6 | 0.00 | 0.00 | 0.00 | 76 | 1017.7 |
| 20260901024139 | 28 | 168 | 0.0 | 3.2 | 0.00 | 0.00 | 0.00 | 76 | 1017.7 |
| 20260901023639 | 28 | 170 | 1.6 | 4.8 | 0.00 | 0.00 | 0.00 | 75 | 1017.6 |
| 20260901023139 | 28 | 194 | 0.0 | 3.2 | 0.00 | 0.00 | 0.00 | 75 | 1017.5 |
| 20260901022639 | 28 | 188 | 0.0 | 1.6 | 0.00 | 0.00 | 0.00 | 74 | 1017.5 |
| 20260901022139 | 29 | 188 | 0.0 | 0.0 | 0.00 | 0.00 | 0.00 | 74 | 1017.5 |